[[{"header":{"parameterUnit":"m.s-1","parameterCategory":1,"la1":30.2991,"la2":30.254,"lo1":-89.0895,"lo2":-89.0444,"dy":0.0017,"dx":0.0017,"nx":28,"ny":28,"refTime":"2023-04-22T21:00:00:Z","depth":0,"parameterNumber":2,"parameterNumberName":"U-component_of_WINDS"},"data":[0,0,0,0,0,0,0,0,0,0,0,0,0,0,0,0,0,0,0,0,0,0,0,0,0,0,0,0,0,0,0,0,0,0,0,0,0,0,0,0,0,0,0,0,0,0,0,0,0,0,0,0,0,0,0,0,0,0,-5.3919,-5.3918,0,-5.3854,-5.3853,-5.3853,-5.3693,-5.3689,-5.3686,-5.3683,-5.362,-5.3621,-5.3623,0,0,0,0,0,0,0,0,0,0,0,0,0,-5.3911,-5.3912,-5.3919,-5.3918,-5.3918,-5.3854,-5.3853,-5.3852,-5.3693,-5.3689,-5.3685,-5.3681,-5.3619,-5.3621,-5.3623,0,0,0,0,0,0,0,0,0,0,0,0,0,-5.3887,-5.3912,-5.3919,-5.383,-5.3822,-5.3854,-5.3853,-5.3852,-5.3694,-5.3689,-5.3684,-5.3679,-5.3619,-5.3621,-5.3623,-5.3738,0,0,-5.363,-5.3631,0,0,0,0,0,0,0,0,-5.3889,-5.3888,-5.3844,-5.3837,-5.3827,-5.3776,-5.3827,-5.3814,-5.3695,-5.3743,-5.3682,-5.3677,-5.3676,-5.3673,-5.3672,-5.3735,-5.3732,-5.363,-5.3631,-5.3632,-5.3633,0,0,0,0,0,0,0,-5.389,-5.389,-5.3893,-5.3844,-5.3833,-5.3795,-5.3786,-5.3824,-5.3739,-5.3738,-5.3726,-5.3721,-5.367,-5.3671,-5.367,-5.3731,-5.363,-5.3632,-5.3633,-5.3634,-5.3887,-5.3892,0,0,0,0,0,0,-5.3904,-5.3892,-5.3896,-5.3892,-5.3846,-5.38,-5.379,-5.3798,-5.3738,-5.3724,-5.3725,-5.3713,-5.3669,-5.3667,-5.3667,-5.3798,-5.3632,-5.3634,-5.3636,-5.3882,-5.3888,-5.3894,0,0,0,0,0,0,-5.3905,-5.3906,-5.3898,-5.3889,-5.3885,-5.3805,-5.3816,-5.3799,-5.3799,-5.3728,-5.3712,-5.374,-5.3665,-5.3664,-5.3722,-5.3793,-5.3635,-5.3637,-5.3875,-5.3884,-5.3891,-5.4061,0,0,0,0,0,0,-5.3905,-5.3907,-5.3949,-5.3891,-5.3886,-5.3953,-5.382,-5.3801,-5.3803,-5.3787,-5.3738,-5.3725,-5.3661,-5.3719,-5.3724,-5.3793,-5.3639,-5.3869,-5.3879,-5.3889,-5.4048,-5.4073,-5.4095,0,0,0,0,0,-5.3905,-5.3999,-5.3951,-5.3953,-5.3936,-5.3957,-5.3954,-5.3878,-5.3809,-5.3851,-5.3806,-5.3727,-5.3785,-5.3726,-5.373,-5.3802,-5.3864,-5.3876,-5.3888,-5.4038,-5.4069,-5.4095,0,0,0,0,0,0,-5.4068,-5.399,-5.3936,-5.4014,-5.3993,-5.393,-5.398,-5.3913,-5.3912,-5.3897,-5.3803,-5.3794,-5.3865,-5.3839,-5.3775,-5.3911,-5.3812,-5.3825,-5.3924,-5.3953,-5.3976,-5.398,-5.3641,0,0,0,0,0,-5.4113,-5.4136,-5.4067,-5.4142,-5.4135,-5.406,-5.4067,-5.4009,-5.3985,-5.3976,-5.3934,-5.3915,-5.3929,-5.394,-5.3949,-5.4045,-5.4032,-5.4096,-5.412,-5.4139,-5.4152,-5.4202,-5.4229,-5.3934,-5.3934,-5.3934,0,0,-5.4206,-5.4166,-5.4186,-5.4174,-5.4151,-5.4179,-5.4054,-5.4087,-5.4107,-5.3981,-5.4032,-5.4003,-5.3975,-5.4053,-5.4085,-5.4033,-5.4231,-5.4155,-5.4171,-5.4172,-5.4217,-5.4245,-5.427,-5.3942,-5.3941,-5.3939,0,0,-5.4389,-5.4361,-5.4421,-5.4401,-5.4369,-5.4319,-5.4334,-5.4281,-5.4256,-5.4307,-5.4213,-5.4237,-5.4262,-5.4247,-5.4242,-5.4423,-5.4351,-5.4429,-5.4551,-5.4601,-5.4624,-5.4644,-5.4709,-5.4733,-5.4442,-5.4443,-5.4443,0,-5.4508,-5.4543,-5.446,-5.45,-5.4498,-5.4386,-5.4447,-5.4433,-5.4406,-5.4408,-5.4351,-5.4382,-5.4355,-5.4428,-5.4473,-5.4473,-5.4488,-5.4433,-5.4627,-5.4647,-5.4664,-5.4725,-5.4749,-5.4452,-5.4451,-5.445,-5.4449,0,-5.4693,-5.4719,-5.4772,-5.4748,-5.4752,-5.4803,-5.4729,-5.4744,-5.4688,-5.4645,-5.47,-5.4664,-5.4664,-5.4678,-5.4624,-5.4745,-5.4714,-5.4644,-5.4542,-5.4703,-5.4759,-5.4781,-5.4466,-5.4463,-5.446,-5.4457,0,0,-5.4972,-5.4904,-5.4924,-5.4913,-5.487,-5.489,-5.4937,-5.4937,-5.4952,-5.4938,-5.4976,-5.5002,-5.4937,-5.4933,-5.4876,-5.4921,-5.5067,-5.4845,-5.4843,-5.4887,-5.5198,-5.525,-5.5278,-5.502,-5.5024,-5.5027,-5.52,0,-5.5143,-5.5217,-5.5145,-5.5234,-5.5259,-5.5155,-5.5196,-5.5176,-5.5138,-5.5155,-5.5114,-5.5133,-5.5047,-5.5044,-5.5083,-5.5041,-5.5128,-5.5028,-5.5054,-5.5056,-5.5063,-5.5307,-5.5361,-5.5526,-5.5222,-5.5225,-5.5228,0,-5.5351,-5.5347,-5.5439,-5.5392,-5.54,-5.5438,-5.5433,-5.545,-5.5426,-5.5396,-5.5393,-5.5324,-5.5369,-5.5272,-5.5333,-5.5267,-5.5274,-5.5256,-5.5261,-5.5258,-5.515,-5.5311,-5.5577,-5.5601,-5.5261,-5.5258,-5.5256,0,-5.5546,-5.5563,-5.562,-5.5614,-5.5561,-5.5591,-5.5571,-5.5542,-5.5547,-5.5544,-5.5547,-5.555,-5.5551,-5.5556,-5.5491,-5.5426,-5.5561,-5.5458,-5.5538,-5.554,-5.5568,-5.5567,-5.5839,-5.5577,-5.5576,-5.5576,-5.5575,0,-5.5743,-5.5803,-5.5707,-5.5742,-5.5807,-5.5726,-5.5793,-5.5762,-5.5738,-5.5767,-5.5679,-5.5708,-5.5621,-5.5642,-5.5592,-5.5651,-5.5653,-5.563,-5.5616,-5.5637,-5.564,-5.5639,-5.5625,-5.5582,-5.5581,-5.558,-5.5579,0,-5.5969,-5.5907,-5.5962,-5.5909,-5.5898,-5.5948,-5.5903,-5.5934,-5.5892,-5.593,-5.5934,-5.5869,-5.5889,-5.5825,-5.5836,-5.5802,-5.5888,-5.5856,-5.5896,-5.5885,-5.5968,-5.5961,-5.6247,-5.628,-5.5999,-5.6002,-5.6004,0,-5.6098,-5.6141,-5.6093,-5.6106,-5.609,-5.6112,-5.6117,-5.604,-5.605,-5.6028,-5.6062,-5.6075,-5.6081,-5.6119,-5.6073,-5.6081,-5.6047,-5.6147,-5.6048,-5.6068,-5.6048,-5.6045,-5.605,-5.6167,-5.6171,-5.6174,-5.6176,0,-5.6333,-5.6301,-5.6311,-5.6312,-5.632,-5.6317,-5.6308,-5.6324,-5.6242,-5.6258,-5.6277,-5.6282,-5.6293,-5.6307,-5.6306,-5.6286,-5.6219,-5.6208,-5.6227,-5.6248,-5.6269,-5.6258,-5.595,-5.6201,-5.6199,-5.6197,-5.6195,-5.6194,-5.6513,-5.6548,-5.652,-5.6535,-5.652,-5.6515,-5.6542,-5.6504,-5.6518,-5.652,-5.6475,-5.6504,-5.6482,-5.6473,-5.6462,-5.6485,-5.6438,-5.6466,-5.6472,-5.648,-5.6493,-5.6267,-5.6484,-5.6484,-5.6483,-5.6482,-5.6482,0,-5.6743,-5.672,-5.6735,-5.6725,-5.6738,-5.6674,-5.6661,-5.6676,-5.6703,-5.6687,-5.6696,-5.6719,-5.6734,-5.6691,-5.6699,-5.6726,-5.6695,-5.673,-5.6727,-5.6724,-5.6534,-5.6517,-5.6755,-5.6755,-5.6755,-5.6755,-5.6755,-5.6755,-5.6863,-5.6918,-5.6884,-5.6932,-5.691,-5.6937,-5.6935,-5.6931,-5.6918,-5.6948,-5.696,-5.6931,-5.6906,-5.6912,-5.6923,-5.691,-5.6917,-5.6963,-5.694,-5.6764,-5.6737,-5.6711,-5.6694,-5.6966,-5.6966,-5.7127,-5.7128,-5.7129]},{"header":{"parameterUnit":"m.s-1","parameterCategory":1,"la1":30.2991,"la2":30.254,"lo1":-89.0895,"lo2":-89.0444,"dy":0.0017,"dx":0.0017,"nx":28,"ny":28,"refTime":"2023-04-22T21:00:00:Z","depth":0,"parameterNumber":3,"parameterNumberName":"V-component_of_WINDS"},"data":[0,0,0,0,0,0,0,0,0,0,0,0,0,0,0,0,0,0,0,0,0,0,0,0,0,0,0,0,0,0,0,0,0,0,0,0,0,0,0,0,0,0,0,0,0,0,0,0,0,0,0,0,0,0,0,0,0,0,1.961,1.961,0,1.9605,1.9605,1.9604,1.9651,1.9652,1.9653,1.9655,1.9642,1.9641,1.9639,0,0,0,0,0,0,0,0,0,0,0,0,0,1.9655,1.9654,1.961,1.961,1.961,1.9605,1.9605,1.9604,1.965,1.9652,1.9654,1.9655,1.9643,1.9641,1.9639,0,0,0,0,0,0,0,0,0,0,0,0,0,1.9641,1.9654,1.961,1.9632,1.9634,1.9605,1.9605,1.9604,1.965,1.9652,1.9654,1.9656,1.9643,1.9641,1.9639,1.9585,0,0,1.9632,1.9631,0,0,0,0,0,0,0,0,1.9642,1.9639,1.9629,1.9631,1.9633,1.9631,1.9616,1.9598,1.965,1.9644,1.9655,1.9657,1.9636,1.9635,1.9629,1.9585,1.9584,1.9632,1.963,1.9629,1.9629,0,0,0,0,0,0,0,1.9643,1.964,1.9608,1.9629,1.9631,1.9641,1.9641,1.9613,1.9629,1.9645,1.9648,1.9647,1.9638,1.9631,1.9629,1.9584,1.9632,1.963,1.9628,1.9627,1.9496,1.9494,0,0,0,0,0,0,1.9642,1.9641,1.9608,1.9608,1.9643,1.9639,1.9639,1.9629,1.9629,1.9632,1.9645,1.9649,1.9634,1.9632,1.9629,1.9566,1.9629,1.9627,1.9626,1.9498,1.9496,1.9494,0,0,0,0,0,0,1.9642,1.9638,1.9608,1.9625,1.9622,1.9636,1.9625,1.9628,1.9622,1.963,1.9633,1.9636,1.9636,1.9632,1.9597,1.9567,1.9626,1.9624,1.9501,1.9498,1.9495,1.9441,0,0,0,0,0,0,1.9644,1.9638,1.9619,1.9624,1.9621,1.9577,1.9623,1.9627,1.9618,1.9623,1.9622,1.9624,1.9637,1.96,1.9594,1.9565,1.9622,1.9503,1.9499,1.9496,1.9445,1.9436,1.9428,0,0,0,0,0,1.9645,1.9602,1.9618,1.9614,1.9597,1.9575,1.9573,1.9591,1.9616,1.9596,1.9602,1.9624,1.9571,1.9596,1.959,1.9559,1.9505,1.9501,1.9496,1.9449,1.9438,1.9429,0,0,0,0,0,0,1.959,1.9603,1.9621,1.9579,1.9576,1.9583,1.9558,1.9579,1.9567,1.9571,1.9592,1.9592,1.9552,1.9552,1.9579,1.9508,1.9543,1.9536,1.9509,1.9498,1.949,1.949,1.962,0,0,0,0,0,1.9574,1.9557,1.9568,1.953,1.9528,1.9544,1.9534,1.9549,1.9546,1.9544,1.9547,1.9541,1.9524,1.9511,1.9496,1.9446,1.9446,1.9422,1.9414,1.9407,1.9401,1.9375,1.9364,1.9478,1.9478,1.9478,0,0,1.9539,1.9544,1.9531,1.952,1.9519,1.9499,1.9542,1.9519,1.9504,1.954,1.9507,1.9509,1.9504,1.9462,1.9443,1.946,1.937,1.9401,1.9396,1.9393,1.9369,1.9358,1.9348,1.9475,1.9476,1.9476,0,0,1.9464,1.9467,1.9436,1.9435,1.9435,1.9446,1.9439,1.9443,1.9447,1.9415,1.9442,1.9424,1.9393,1.9389,1.9382,1.9309,1.9329,1.9303,1.9258,1.9233,1.9224,1.9216,1.9189,1.9179,1.9298,1.9297,1.9297,0,1.942,1.9393,1.9417,1.9393,1.9386,1.9422,1.9389,1.9387,1.938,1.9374,1.9395,1.9359,1.9358,1.9315,1.9297,1.9291,1.9282,1.9302,1.9224,1.9216,1.9209,1.9183,1.9173,1.9294,1.9295,1.9295,1.9295,0,1.9338,1.9319,1.9294,1.9289,1.9281,1.9252,1.9271,1.9259,1.9275,1.9283,1.925,1.9251,1.9236,1.9227,1.9241,1.9186,1.9197,1.9221,1.9255,1.9195,1.9171,1.9161,1.929,1.9291,1.9292,1.9293,0,0,1.9226,1.9238,1.9228,1.9227,1.923,1.9215,1.9189,1.9177,1.9166,1.9161,1.9138,1.9113,1.9135,1.9128,1.9142,1.912,1.9061,1.9146,1.9146,1.9129,1.9,1.8981,1.897,1.9076,1.9074,1.9073,1.9,0,1.9153,1.911,1.9132,1.9085,1.9068,1.9102,1.9079,1.9078,1.9085,1.907,1.9078,1.906,1.9091,1.9087,1.9067,1.9073,1.9035,1.9079,1.9053,1.9051,1.9051,1.8958,1.8937,1.8869,1.8991,1.899,1.8988,0,1.9061,1.9055,1.9008,1.9016,1.9009,1.8988,1.898,1.8966,1.8965,1.8972,1.8966,1.8986,1.8959,1.8996,1.8958,1.8987,1.8978,1.898,1.8978,1.8974,1.9015,1.895,1.8847,1.8837,1.8974,1.8975,1.8976,0,1.8984,1.8963,1.8933,1.8931,1.894,1.8924,1.8926,1.8928,1.892,1.8912,1.8907,1.8896,1.8889,1.8879,1.8895,1.892,1.8855,1.8893,1.8858,1.8858,1.8841,1.8841,1.8734,1.8838,1.8838,1.8838,1.8839,0,1.8899,1.8868,1.8898,1.8879,1.8845,1.8871,1.8836,1.8842,1.8844,1.8825,1.8854,1.8836,1.8859,1.8843,1.8855,1.8822,1.8819,1.8823,1.8826,1.8819,1.8818,1.8812,1.8816,1.8836,1.8836,1.8837,1.8837,0,1.8805,1.8824,1.8793,1.8805,1.8807,1.8782,1.8791,1.8773,1.8785,1.8761,1.8757,1.8773,1.8755,1.8771,1.8753,1.8762,1.8718,1.8728,1.8718,1.8721,1.8685,1.8687,1.8568,1.8553,1.8668,1.8667,1.8666,0,1.8749,1.8726,1.8737,1.8728,1.873,1.8714,1.8707,1.8732,1.8722,1.8721,1.8703,1.8689,1.8678,1.8648,1.8657,1.8644,1.8654,1.8613,1.8652,1.8646,1.8652,1.8652,1.865,1.8604,1.8603,1.8602,1.8601,0,1.8646,1.8658,1.8647,1.8641,1.8632,1.8627,1.8624,1.8615,1.864,1.8629,1.8612,1.8605,1.8588,1.8573,1.8563,1.8564,1.8586,1.8589,1.858,1.8572,1.8567,1.8568,1.8695,1.8591,1.8592,1.8593,1.8593,1.8594,1.8569,1.8551,1.8556,1.8544,1.8545,1.8542,1.8527,1.8537,1.8525,1.8515,1.853,1.8509,1.851,1.85,1.8498,1.8482,1.8498,1.8486,1.8482,1.8478,1.8473,1.8571,1.848,1.848,1.8481,1.8481,1.8481,0,1.8467,1.8473,1.8462,1.8459,1.8449,1.8474,1.8473,1.8462,1.8445,1.8445,1.8435,1.8416,1.8402,1.8411,1.8399,1.8384,1.8394,1.838,1.838,1.838,1.8459,1.8467,1.8372,1.8372,1.8372,1.8372,1.8372,1.8372,1.8413,1.8384,1.8396,1.8368,1.8374,1.8356,1.8353,1.835,1.8351,1.8329,1.8319,1.8326,1.8329,1.8318,1.8306,1.8309,1.8302,1.8284,1.8291,1.8364,1.8374,1.8384,1.8392,1.8283,1.8283,1.8213,1.8213,1.8212]}]]